Location: Ecquedecques
(50.5624°N, 2.4519°E)
Time: 11:59:06
(UTC+00:00)

Daily predictions for brighter satellites

Satellite Brightness Start Highest point End
(mag) Time Altitude Azimuth Time Altitude Azimuth Time Altitude Azimuth
Cosmos 1980 3.8 16:20:14 10° SSW 16:25:56 83° WNW 16:31:40 10° NNE
NOAA 6 4.0 16:22:09 10° SSE 16:27:14 65° ENE 16:32:20 10° N
Okean O Rocket 2.2 16:23:24 10° SE 16:27:19 34° ENE 16:31:18 10° N
Cosmos 1633 Rocket 3.6 16:25:09 10° N 16:29:15 37° ENE 16:33:17 10° SE
ISS -3.7 16:25:53 10° W 16:29:15 76° N 16:32:38 10° E
Okean-O 4.5 16:28:14 10° ENE 16:29:27 11° NE 16:30:41 10° NE
H-2A R/B 2.8 16:27:49 10° SSE 16:31:41 87° ENE 16:35:36 10° NNW
Cosmos 1933 4.2 16:29:41 10° SSE 16:33:15 30° E 16:36:51 10° NNE
Meteor 2-12 Rocket 4.4 16:27:13 10° N 16:33:23 70° ENE 16:39:28 10° SSE
Spot 2 4.4 16:29:15 10° SSE 16:34:01 87° ENE 16:39:05 10° NNW
Nadezhda 1 Rocket 4.1 16:29:08 10° S 16:35:31 89° E 16:41:59 10° N
Cosmos 2218 Rocket 4.3 16:29:43 10° N 16:35:34 43° ENE 16:41:23 10° SE
Cosmos 2366 rocket 4.3 16:30:40 10° N 16:36:31 42° ENE 16:42:19 10° SE
Meteor 1-25 Rocket 4.4 16:31:55 10° N 16:37:25 51° ENE 16:42:58 10° SSE
ERS-2 4.1 16:36:24 10° ENE 16:37:46 12° E 16:39:07 10° ESE
Cosmos 1867 3.6 16:33:38 10° SSW 16:39:03 74° SE 16:44:32 10° NE
Envisat 3.0 16:38:22 10° SSE 16:43:28 86° ENE 16:48:35 10° NNW
SL-08 R/B 4.4 16:39:58 10° N 16:44:38 45° WNW 16:49:11 10° SW
Lacrosse 5 rocket 1.2 16:43:35 10° SW 16:47:12 58° SE 16:50:15 13° ENE
Cosmos 2322 Rocket 4.4 16:50:00 10° NW 16:52:24 13° NNW 16:54:49 10° N
YAOGAN 6 2.5 16:48:51 10° SSE 16:52:29 86° ENE 16:56:05 10° NNW
Cosmos 2297 4.0 16:47:20 10° NNW 16:53:01 75° WSW 16:58:43 10° SSE
Cosmos 1606 2.7 16:50:57 10° S 16:54:51 88° E 16:58:45 10° N
CZ-4B R/B 2.8 16:56:26 16° ENE 16:57:29 18° E 16:59:47 10° SE
AQUARIUS 4.1 16:53:14 10° SSE 16:57:41 63° ENE 17:02:08 10° N
FengYun 1-2 T 4.3 16:52:25 10° SE 16:57:46 54° ENE 17:03:07 10° N
Landsat 5 3.6 16:54:15 10° NNE 16:58:43 76° ESE 17:03:14 10° S
SL-16 R/B 2.2 16:53:32 10° SSW 16:59:08 68° ESE 17:04:46 10° NNE
BREEZE-M DEB (TANK) 3.4 17:00:15 10° SW 17:02:21 22° SSE 17:03:26 15° ESE
Cosmos 1500 4.3 17:01:40 10° NNE 17:04:45 22° ENE 17:07:49 10° ESE
SMAP 3.0 17:02:02 10° SSE 17:06:41 86° ENE 17:11:23 10° NNW
Sich 1 3.9 17:02:36 10° NNW 17:06:53 53° W 17:11:06 10° S
Cosmos 1656 Rocket 4.1 17:03:42 10° NNW 17:09:02 40° NE 17:14:17 10° ESE
CZ-4C R/B 3.3 17:06:08 10° N 17:09:47 74° WNW 17:13:23 10° SSW
YAOGAN 1 3.9 17:09:19 17° E 17:10:38 20° ENE 17:13:44 10° NNE
Cosmos 1470 Rocket 3.6 17:07:34 10° N 17:11:50 55° ENE 17:16:05 10° SSE
Cosmos 783 Rocket 4.5 17:07:01 10° SSW 17:12:19 81° ESE 17:17:37 10° NNE
Cosmos 1151 Rocket 3.0 17:09:04 10° S 17:13:17 63° E 17:17:31 10° NNE
Cosmos 864 Rocket 4.4 17:11:17 10° N 17:17:37 77° ENE 17:23:52 10° SSE
Cosmos 2263 4.2 17:12:28 10° NNW 17:18:00 56° NE 17:23:30 10° SE
SL-8 Rocket 4.1 17:14:34 10° N 17:20:51 83° W 17:27:08 10° S
Cosmos 1515 Rocket 3.9 17:17:14 10° SSE 17:21:21 41° E 17:25:08 12° NNE
CZ-2C R/B 3.6 17:18:18 10° SE 17:22:34 31° ENE 17:26:46 10° N
Cosmos 1238 Rocket 3.9 17:20:35 10° NNE 17:23:56 26° ENE 17:27:50 10° SE
COSMO-SKYMED 1 3.3 17:23:06 21° NE 17:25:08 31° E 17:29:00 10° SSE
TELKOM 3 3.0 17:22:55 10° W 17:25:41 76° S 17:26:18 45° ESE
Cosmos 2360 Rocket 4.4 17:26:09 10° NW 17:28:18 12° NNW 17:30:28 10° N
X-37B 2.4 17:25:46 10° SW 17:28:18 22° SSE 17:29:28 18° SE
Cosmos 2333 Rocket 4.3 17:25:02 10° WNW 17:28:53 18° NNW 17:32:45 10° N
USA 281 3.5 17:23:32 10° ESE 17:29:43 45° NE 17:35:55 10° NNW
USA 81 4.2 17:25:11 10° N 17:30:29 81° W 17:35:47 10° S
Cosmos 2219 Rocket 4.3 17:26:58 10° WNW 17:30:51 19° NW 17:34:44 10° N
Helios 1A Rocket 3.6 17:33:26 30° E 17:34:00 31° ENE 17:37:35 10° N
Cosmos 2228 Rocket 3.9 17:30:07 10° SSE 17:34:01 29° E 17:34:28 28° ENE
Meteor 1-4 Rocket 2.3 17:31:38 10° S 17:35:12 72° E 17:37:26 21° NNE
Cosmos 1821 Rocket 4.1 17:30:25 10° N 17:36:30 51° ENE 17:42:39 10° SSE
H-2A R/B 2.7 17:35:17 22° ESE 17:37:29 30° ENE 17:41:53 10° N
Cosmos 1812 4.0 17:34:31 10° SSE 17:36:35 23° ESE 17:36:35 23° ESE
USA 267 3.3 17:34:11 21° E 17:38:38 62° NNE 17:45:04 10° WNW
Meteor 1-11 Rocket 4.3 17:34:09 10° N 17:39:29 37° ENE 17:44:53 10° SE
Cosmos 1939 Rocket 2.7 17:36:00 10° SSE 17:39:52 69° ENE 17:43:49 10° N
NOSS 3-3 (A) 4.5 17:32:41 10° NW 17:39:54 67° NE 17:47:58 10° ESE
NOSS 3-3 (C) 4.5 17:32:44 10° NW 17:40:00 67° NE 17:47:58 11° ESE
Cosmos 1328 Rocket 3.6 17:36:54 10° SSW 17:41:14 79° W 17:45:37 10° N
Cosmos 44 Rocket 3.4 17:36:29 10° NW 17:41:37 62° NE 17:45:08 20° ESE
Cosmos 1933 Rocket 3.5 17:37:26 10° N 17:41:56 77° E 17:46:23 10° SSE
CZ-4 R/B 1.8 17:41:27 34° E 17:42:10 38° ENE 17:45:57 10° N
Cosmos 1602 4.1 17:40:36 10° NNW 17:44:30 65° W 17:48:20 10° S
CSL-04 Rocket 4.3 17:44:05 30° E 17:45:00 32° ENE 17:49:38 10° N
IRS-1C Rocket 4.0 17:41:03 10° SSE 17:46:17 70° ENE 17:51:34 10° NNW
Cosmos 2181 Rocket 4.3 17:42:56 10° SSW 17:49:19 70° WNW 17:55:40 10° N
SL-24 R/B 4.0 17:49:33 42° ESE 17:49:33 42° ESE 17:52:52 10° S
Cosmos 2237 Rocket 3.8 17:45:45 10° WSW 17:50:34 28° NW 17:55:26 10° NNE
Cosmos 1680 Rocket 4.4 17:46:15 10° SSE 17:50:19 28° ESE 17:50:19 28° ESE
CZ-4B R/B 4.4 17:46:29 10° S 17:51:31 42° W 17:56:33 10° NNW
Cosmos 1603 3.8 17:49:18 10° S 17:54:44 53° ESE 17:56:55 33° NE
Meteor 1-26 Rocket 4.5 17:48:51 10° SSW 17:54:54 78° WNW 18:00:55 10° N
CZ-2D R/B 3.1 17:52:54 10° SSE 17:56:44 74° ENE 18:00:35 10° N
H-2A R/B 3.3 17:53:02 10° N 17:56:58 39° WNW 18:00:58 10° SW
Cosmos 2369 Rocket 2.6 17:52:07 10° NW 17:57:45 64° WSW 18:03:19 10° SSE
Cosmos 1943 3.4 17:52:41 10° S 17:58:08 50° ESE 17:59:58 36° ENE
Cosmos 1943 Rocket 3.5 17:53:43 10° NW 17:58:52 40° WSW 18:04:02 10° S
Meteor 1-5 Rocket 4.2 17:54:08 10° N 18:00:05 76° ENE 18:05:51 10° SSE
Cosmos 1538 Rocket 4.0 17:54:51 10° SSW 18:00:15 88° ESE 18:03:44 23° NNE
Cosmos 1371 Rocket 4.2 17:57:57 10° NNW 18:02:59 47° ENE 18:03:41 44° E
Cosmos 1782 3.3 17:59:42 10° SSW 18:03:37 61° WNW 18:06:45 16° N
Okean O Rocket 3.5 17:59:47 10° SSW 18:03:41 31° W 18:07:39 10° NNW
Okean-O 2.5 18:00:43 10° SSE 18:05:06 66° ENE 18:09:31 10° N
ISS -3.7 18:02:48 10° WNW 18:05:55 75° WNW 18:05:55 75° WNW
ARGOS 3.6 18:08:32 39° NE 18:08:32 39° NE 18:12:57 10° N
CENTAUR R/B 3.3 18:03:14 10° S 18:07:44 29° ESE 18:07:44 29° ESE
Cosmos 2056 Rocket 3.7 18:04:10 10° NNW 18:09:16 47° ENE 18:09:29 47° ENE
ERS-2 2.3 18:10:45 44° N 18:11:45 69° WNW 18:15:23 10° SSW
SKYMED 2 3.4 18:11:44 38° NNE 18:13:24 88° ESE 18:17:45 10° SSW
NOSS 3-2 (C) 4.3 18:11:23 10° S 18:15:09 29° SE 18:15:09 29° SE
Cosmos 1869 Rocket 3.4 18:12:11 10° N 18:16:41 74° E 18:17:48 49° SSE
BREEZE-M DEB (TANK) 4.1 18:13:09 10° SW 18:19:50 34° SSE 18:19:59 34° SSE
Cosmos 1605 Rocket 4.5 18:17:25 10° N 18:21:48 38° NE 18:21:48 38° NE
Cosmos 1624 Rocket 3.9 18:20:47 10° NNW 18:25:56 62° NE 18:25:56 62° NE
Lacrosse 5 rocket 2.2 18:23:01 10° W 18:25:53 35° NW 18:25:53 35° NW
Meteor 1-10 Rocket 4.0 18:21:17 10° S 18:26:53 75° E 18:28:50 42° NNE
BREEZE-M DEB (TANK) 4.4 18:25:47 10° W 18:26:37 23° W 18:26:37 23° W
Cosmos 371 Rocket 3.2 18:23:29 10° NNW 18:28:01 68° NNE 18:28:01 68° NNE
CZ-4B R/B 3.1 18:29:34 28° WNW 18:29:47 29° WNW 18:32:33 10° SW
NOSS 3-2 (A) 3.3 18:35:36 10° SSW 18:41:16 68° SE 18:41:27 67° ESE
SL-16 R/B 3.8 18:38:51 10° WSW 18:43:44 29° NW 18:46:58 18° N
Cosmos 1535 Rocket 4.3 18:37:54 10° N 18:44:04 83° E 18:50:12 10° S
YAOGAN 1 3.0 18:46:28 59° W 18:46:28 59° W 18:50:39 10° NNW
USA 215 3.2 18:46:42 58° SE 18:47:06 59° SE 18:53:32 10° SW
MOS 1 Rocket 3.6 18:52:44 78° NNW 18:53:02 82° WNW 18:58:25 10° SSW
USA 238 DEB 3.5 18:54:03 10° SW 19:00:35 78° SE 19:00:35 78° SE
USA 238 3.5 18:54:08 10° SW 19:00:39 77° SE 19:00:39 77° SE
COSMO-SKYMED 1 4.1 19:00:20 30° NW 19:01:19 34° WNW 19:05:13 10° SW
Cosmos 158 Rocket 4.4 18:56:47 10° SW 19:00:46 53° WSW 19:00:46 53° WSW
CZ-2C R/B 4.1 18:57:43 10° SSW 19:02:23 40° W 19:06:55 10° NNW
X-37B 4.1 19:01:37 10° WSW 19:01:44 11° WSW 19:01:44 11° WSW
Cosmos 923 Rocket 4.4 19:00:31 10° SW 19:05:14 59° W 19:05:14 59° W
Cosmos 1934 Rocket 4.3 18:59:39 10° NNW 19:06:00 67° W 19:12:13 10° S
USA 281 4.0 19:07:53 10° S 19:14:11 49° WSW 19:20:33 10° NW
H-2A R/B 2.9 19:15:55 43° SW 19:16:45 47° W 19:21:41 10° NNW
CZ-4 R/B 3.6 19:17:27 24° W 19:17:27 24° W 19:20:39 10° NW
USA 267 3.3 19:21:32 69° SSW 19:21:38 69° SW 19:28:11 10° WNW
CENTAUR R/B 3.9 19:52:08 10° SW 19:54:58 31° WSW 19:54:58 31° WSW
